Regional Weather Roundup
Issued by NWS Grand Forks, ND

Home | Current Version | Previous Version | Graphics & Text | Print | Product List | Glossary On
Versions: 1 2 3 4 5 6 7 8 9 10 11 12 13 14 15 16 17 18 19 20 21 22 23 24 25 26 27 28 29 30 31 32 33 34 35 36 37 38 39 40 41 42 43 44 45 46 47 48 49 50
000
ASUS43 KFGF 180631
RWRFGF
PRAIRIE TO PINES  WEATHER ROUNDUP
NATIONAL WEATHER SERVICE EASTERN NORTH DAKOTA/GRAND FORKS ND
1200 AM CST THU DEC 18 2014

 **SATELLITE DATA USED TO AUGMENT SKY COVER AT AUTOMATED STATIONS**
 *****  WEATHER ACROSS EASTERN NORTH DAKOTA  *****

CITY           SKY/WX    TMP DP  RH WIND       PRES   REMARKS
GRAND FORKS    PTCLDY     7   5  91 E5        30.31F WCI  -2
6HR MIN TEMP:   4; 6HR MAX TEMP:  13;

GRAND FRKS AFB CLEAR      4   3  98 CALM      30.30S
DEVILS LAKE    CLEAR      7  -2  66 SE6       30.20F WCI  -3
6HR MIN TEMP:   3; 6HR MAX TEMP:  10;

FARGO          PTCLDY     8   5  87 E5        30.31S WCI   0
WAHPETON ARPT  PTCLDY     9   3  78 E3        30.31S
$$

 ***** WEATHER ACROSS CENTRAL AND WESTERN NORTH DAKOTA  *****

CITY           SKY/WX    TMP DP  RH WIND       PRES   REMARKS
BISMARCK       CLOUDY    17  12  80 SE10      30.17S WCI   5
6HR MIN TEMP:  12; 6HR MAX TEMP:  17;

MINOT          PTCLDY     5   1  83 E5        30.14S WCI  -4
6HR MIN TEMP:   4; 6HR MAX TEMP:  11;

JAMESTOWN      PTCLDY     4   1  88 SE5       30.22F WCI  -5
6HR MIN TEMP:   3; 6HR MAX TEMP:  11;

MINOT AFB      MOCLDY     2   1  92 SE7       30.14F WCI -10
GARRISON         N/A     13  10  88 E7        30.12S WCI   3
WILLISTON      CLOUDY    20  14  77 S8        30.06S WCI  10
6HR MIN TEMP:  20; 6HR MAX TEMP:  20;

DICKINSON      CLOUDY    19  15  84 S8        30.01F WCI   9
6HR MIN TEMP:  18; 6HR MAX TEMP:  19;

HETTINGER      CLOUDY    18  15  88 SE10      30.04S FOG     WCI   6
6HR MIN TEMP:  17; 6HR MAX TEMP:  18; 6HR PCP: TRACE;

$$

 *****  OTHER AIRPORT OBSERVATIONS IN OUR AREA  *****

CITY           SKY/WX    TMP DP  RH WIND       PRES   REMARKS
WALHALLA         N/A      1   1 100 CALM      30.29F
GRAFTON AIRPOR NOT AVBL
VALLEY CITY AR FAIR       7   7 100 CALM      30.25F
CANDO          FAIR       1   0  92 SE6       30.22F WCI -10
CAVALIER APRT  FAIR       7   5  92 CALM      30.30F
GWINNER        CLEAR     12  10  92 MISG      30.28S
SHEYENNE NWR     N/A      2  -2  83 CALM      29.95S
ROLLA          FAIR       7   5  92 S12       30.17F WCI  -9
 ***** THE ABOVE OBSERVATIONS ARE NON NWS ARE NOT QUALITY
       CONTROLLED AND MAY MIS-REPORT RAIN FOR SNOW...
$$

  *****  WEATHER ACROSS NORTHERN MINNESOTA  *****

CITY           SKY/WX    TMP DP  RH WIND       PRES   REMARKS
FLAG ISLAND    PTCLDY    10   5  79 SE3       30.31S
WARROAD        PTCLDY     3   0  85 CALM      30.31F
ROSEAU         PTCLDY     9   3  78 CALM      30.31S
HALLOCK        PTCLDY     3   0  85 CALM      30.31F
THF RVR FALLS  PTCLDY     9   7  92 CALM      30.30S
6HR MIN TEMP:   9; 6HR MAX TEMP:  14;

BAUDETTE       MOCLDY     4  -1  80 CALM      30.31S
6HR MIN TEMP:   4; 6HR MAX TEMP:  11;

WASKISH        MOCLDY     1   0  92 CALM      30.31S
CROOKSTON      PTCLDY     9   7  92 CALM      30.33S
STEPHEN NDAWN    N/A      3   1  92 SE3         N/A
GREENBUSH NDAW   N/A      9   7  92 SE2         N/A
$$
  *****  WEATHER ACROSS CENTRAL AND WEST MINNESOTA  *****

CITY           SKY/WX    TMP DP  RH WIND       PRES   REMARKS
FOSSTON        PTCLDY     3   1  92 CALM      30.28F
BEMIDJI        PTCLDY     4   1  86 CALM      30.28F
PARK RAPIDS    PTCLDY     4   0  83 CALM      30.27S
6HR MIN TEMP:   4; 6HR MAX TEMP:  16;

ELBOW LAKE     FAIR       7   5  90 CALM      30.29S
6HR MIN TEMP:   6; 6HR MAX TEMP:  11;

WADENA         PTCLDY     3   1  92 CALM      30.27S
DETROIT LAKES  PTCLDY     7   5  92 SW3       30.29R
MOORHEAD       PTCLDY     9   9 100 E3        30.32R
FERGUS FALLS   PTCLDY     9   5  85 CALM      30.33S
MORRIS MN      PTCLDY     7   5  92 E3        30.29S
STAPLES        MOCLDY     5   3  92 CALM      30.28F
$$
  *****  WEATHER ELSEWHERE ACROSS MINNESOTA  *****

CITY           SKY/WX    TMP DP  RH WIND       PRES   REMARKS
DULUTH         FLURRIES  17  12  80 W5        30.28R WCI  10
6HR MIN TEMP:  15; 6HR MAX TEMP:  19; 6HR PCP: TRACE;

INTRNTL FALLS  PTCLDY     1  -3  83 CALM      30.32S
6HR MIN TEMP:   1; 6HR MAX TEMP:  13;

ELY            PTCLDY    -2  -6  84 CALM      30.30S
CLOQUET        CLOUDY    16  12  86 W3        30.29F
WHEATON        PTCLDY     1   0  92 CALM      30.33R
BRAINERD       PTCLDY     2  -2  83 CALM      30.30F
6HR MIN TEMP:   1; 6HR MAX TEMP:  12;

HIBBING        PTCLDY     2  -3  80 CALM      30.29S
6HR MIN TEMP:   2; 6HR MAX TEMP:  15;

ALEXANDRIA     PTCLDY     9   6  88 CALM      30.29R
6HR MIN TEMP:   9; 6HR MAX TEMP:  16;

SAINT CLOUD    PTCLDY    11   6  81 NE5       30.31R WCI   3
6HR MIN TEMP:  11; 6HR MAX TEMP:  15;

MINNEAPOLIS    PTCLDY    14  10  84 NE3       30.33S
6HR MIN TEMP:  14; 6HR MAX TEMP:  18;

$$

  *****  WEATHER ACROSS SOUTH DAKOTA  *****

CITY           SKY/WX    TMP DP  RH WIND       PRES   REMARKS
SIOUX FALLS    CLOUDY    13  10  88 CALM      30.26S
6HR MIN TEMP:   6; 6HR MAX TEMP:  14;

BROOKINGS      NOT AVBL
WATERTOWN      CLOUDY     6   2  83 CALM      30.23S
6HR MIN TEMP:   4; 6HR MAX TEMP:  13;

HURON          CLOUDY    13  10  88 S8        30.26R WCI   2
6HR MIN TEMP:   8; 6HR MAX TEMP:  13;

SISSETON         N/A      1  -2  87 CALM      30.29R
ABERDEEN       PTCLDY    13   9  84 SE6       30.26S WCI   4
6HR MIN TEMP:   8; 6HR MAX TEMP:  14;

MITCHELL       CLOUDY    16  12  84 SE7       30.27S WCI   6
PIERRE         CLOUDY    18  16  92 SE13      30.16S WCI   5
6HR MIN TEMP:  17; 6HR MAX TEMP:  18;

MOBRIDGE       CLOUDY    18  13  80 SE12      30.14S WCI   5
RAPID CITY     CLOUDY    22  20  92 SE6       30.01R WCI  14
6HR MIN TEMP:  22; 6HR MAX TEMP:  23;

$$

  *****  SOME WEATHER IN NEARBY STATES *****

CITY           SKY/WX    TMP DP  RH WIND       PRES   REMARKS
GLASGOW MT     CLOUDY    24  19  81 E9        29.97S WCI  14
6HR MIN TEMP:  23; 6HR MAX TEMP:  24;

GREAT FALLS MT PTCLDY    30  24  78 S12       29.89R WCI  20
6HR MIN TEMP:  28; 6HR MAX TEMP:  32;

CHEYENNE WY    PTCLDY    23  15  71 NW5       29.96S WCI  17
6HR MIN TEMP:  23; 6HR MAX TEMP:  37;

SCOTTSBLUFF NE FOG       18  16  92 CALM      30.02S VSB 1/4
6HR MIN TEMP:  15; 6HR MAX TEMP:  20;

OMAHA NE       CLOUDY    28  20  71 E5        30.28S WCI  23
6HR MIN TEMP:  28; 6HR MAX TEMP:  29;

DES MOINES IA  PTCLDY    21  15  78 SW5       30.31R WCI  15
6HR MIN TEMP:  21; 6HR MAX TEMP:  25;

DAVENPORT IA   CLEAR     16  11  80 N3        30.30S
6HR MIN TEMP:  14; 6HR MAX TEMP:  22;

CHICAGO IL     CLOUDY    24  15  68 NW9       30.29R WCI  14
6HR MIN TEMP:  24; 6HR MAX TEMP:  25; 6HR PCP: TRACE;

EAU CLAIRE WI  CLOUDY    19  13  77 CALM      30.30F
6HR MIN TEMP:  14; 6HR MAX TEMP:  19;

LA CROSSE WI   MOCLDY    18  12  77 W3        30.34R
6HR MIN TEMP:  17; 6HR MAX TEMP:  21;

$$

  *****  SOME NATIONAL WEATHER *****

CITY           SKY/WX    TMP DP  RH WIND       PRES   REMARKS
LA GUARDIA NY  CLOUDY    42  27  55 NW14G24   29.87F
6HR MIN TEMP:  42; 6HR MAX TEMP:  47; 6HR PCP: TRACE;

RALEIGH NC     MOCLDY    37  33  85 CALM      30.08S
6HR MIN TEMP:  37; 6HR MAX TEMP:  49;

ATLANTA GA     MOCLDY    39  33  79 NW10      30.13F
6HR MIN TEMP:  39; 6HR MAX TEMP:  42;

NEW ORLEANS LA CLOUDY    52  41  66 NE3       30.17F
6HR MIN TEMP:  50; 6HR MAX TEMP:  55;

OKLAHOMA CITY  DRIZZLE   39  36  87 S8        30.12F FOG
6HR MIN TEMP:  38; 6HR MAX TEMP:  39; 6HR PCP:  0.02;

ALBUQUERQUE NM PTCLDY    36  32  85 S6        30.12R
6HR MIN TEMP:  35; 6HR MAX TEMP:  40; 6HR PCP: TRACE;

SALT LAKE CITY MOCLDY    33  30  88 SE5       30.07R
6HR MIN TEMP:  32; 6HR MAX TEMP:  37;

LOS ANGELES CA PTCLDY    57  44  62 CALM      30.11R



USA.gov is the U.S. government's official web portal to all federal, state and local government web resources and services.